This demonstration page uses our WeatherBlox Daily Observations layout. Learn more.

Left ArrowRight Arrow

38.88101, -77.10428

Hourly Observations for June 3, 2016

Temp ( °F °C ) Dew Point ( °F °C ) Humidity (%) Winds ( mph kmh ) Pressure ( in mb ) Visibility ( mi km ) Precip ( " mm )
12:03 am 00:03 Cloudy 73 23 68 20 83 83 SSE 6 9 30.06 1018 10 16 0.00 0.00
12:52 am 00:52 Cloudy 73 22.8 68 20 84 84 SSE 5 7 30.04 1017 10 16 0.00 0.00
1:11 am 01:11 Cloudy 73 22.8 68 20 84 84 SSE 6 9 30.03 1017 10 16 0.00 0.00
1:52 am 01:52 Cloudy 72 22.2 69 20.6 91 91 SSE 8 13 30.02 1017 10 16 0.00 0.00
2:14 am 02:14 Cloudy 72 22 70 21 94 94 SSE 8 13 30.03 1017 10 16 0.00 0.00
2:52 am 02:52 Cloudy 72 22.2 69 20.6 91 91 SSE 7 11 30.02 1017 10 16 0.00 0.00
3:52 am 03:52 Cloudy 72 22.2 69 20.6 91 91 SE 6 9 30.01 1016 10 16 0.00 0.00
4:52 am 04:52 Cloudy 72 22.2 69 20.6 91 91 ESE 5 7 30.01 1016 10 16 0.00 0.00
5:52 am 05:52 Cloudy 72 22.2 69 20.6 91 91 ESE 5 7 30.01 1016 10 16 0.00 0.00
6:52 am 06:52 Cloudy 72 22.2 69 20.6 91 91 SE 6 9 30.02 1017 10 16 0.00 0.00
7:52 am 07:52 Cloudy 73 22.8 69 20.6 87 87 SSE 7 11 30.04 1017 10 16 0.00 0.00
8:52 am 08:52 Cloudy 73 22.8 69 20.6 87 87 SSE 5 7 30.05 1018 8 13 0.00 0.00
9:52 am 09:52 Cloudy 73 22.8 70 21.1 90 90 SE 7 11 30.04 1017 8 13 0.00 0.03
10:19 am 10:19 Cloudy 74 23.3 70 21.1 88 88 SE 7 11 30.03 1017 9 14 0.00 0.00
10:52 am 10:52 Cloudy 75 23.9 71 21.7 88 88 SSE 5 7 30.04 1017 10 16 0.00 0.00
11:31 am 11:31 Cloudy 77 25 71 21.7 82 82 SE 3 6 30.03 1017 10 16 0.00 0.00
11:52 am 11:52 Cloudy 78 25.6 70 21.1 76 76 NE 5 7 30.04 1017 10 16 0.00 0.00
12:52 pm 12:52 Cloudy 80 26.7 71 21.7 74 74 ENE 8 13 30.02 1017 10 16 0.00 0.00
1:47 pm 13:47 Cloudy 79 26 72 22 79 79 E 8 13 30.00 1016 10 16 0.00 0.00
1:52 pm 13:52 Cloudy 79 26.1 71 21.7 77 77 E 8 13 30.01 1016 10 16 0.00 0.00
2:52 pm 14:52 Cloudy 79 26.1 71 21.7 77 77 E 8 13 30.00 1016 10 16 0.00 0.00
3:31 pm 15:31 Cloudy 79 26.1 70 21.1 74 74 SE 6 9 30.00 1016 10 16 0.00 0.00
3:47 pm 15:47 Mostly Cloudy with Light Rain 79 26 72 22 79 79 ENE 7 11 30.00 1016 7 11 0.01 0.25
3:52 pm 15:52 Mostly Cloudy with Light Rain 78 25.6 71 21.7 79 79 ENE 6 9 29.99 1016 6 10 0.01 0.25
4:52 pm 16:52 Cloudy with Light Rain 77 25 71 21.7 82 82 ENE 5 7 30.00 1016 5 8 0.03 0.76
4:56 pm 16:56 Cloudy with Light Rain 75 24 72 22 89 89 E 7 11 30.00 1016 4 6 0.00 0.00
4:58 pm 16:58 Cloudy with Light Rain 75 24 72 22 89 89 E 7 11 30.00 1016 3 5 0.00 0.00
5:01 pm 17:01 Cloudy with Light Rain 76 24.4 71 21.7 85 85 ENE 9 15 30.00 1016 3 4 0.03 0.76
5:19 pm 17:19 Cloudy with Light Rain 75 23.9 72 22.2 90 90 ENE 9 15 30.00 1016 2 3 0.09 2.29
5:24 pm 17:24 Cloudy with Light Rain 75 24 72 22 89 89 NE 12 19 30.00 1016 4 6 0.00 0.00
5:37 pm 17:37 Cloudy with Light Rain 74 23.3 72 22.2 94 94 NE 13 20 30.00 1016 7 11 0.15 3.81
5:52 pm 17:52 Cloudy with Light Rain 74 23.3 71 21.7 91 91 E 6 9 30.00 1016 7 11 0.15 3.81
6:01 pm 18:01 Cloudy with Rain 74 23.3 71 21.7 91 91 SE 3 6 30.00 1016 3 5 0.03 0.76
6:08 pm 18:08 Cloudy with Rain 73 23 72 22 94 94 SE 6 9 30.00 1016 3 4 0.00 0.00
6:26 pm 18:26 Cloudy with Rain 73 23 72 22 94 94 SSE 6 9 30.00 1016 3 5 0.00 0.00
6:34 pm 18:34 Mostly Cloudy with Light Rain 73 23 72 22 94 94 S 7 11 30.00 1016 4 6 0.00 0.00
6:52 pm 18:52 Mostly Cloudy with Light Rain 73 22.8 71 21.7 94 94 S 8 13 29.99 1016 9 14 0.13 3.30
7:15 pm 19:15 Cloudy 74 23.3 71 21.7 91 91 SSE 7 11 30.00 1016 10 16 0.00 0.03
7:49 pm 19:49 Partly Cloudy 73 23 72 22 94 94 ESE 7 11 30.00 1016 10 16 0.00 0.03
7:52 pm 19:52 Mostly Cloudy 74 23.3 71 21.7 91 91 ESE 7 11 30.01 1016 10 16 0.00 0.03
8:09 pm 20:09 Mostly Cloudy 74 23.3 71 21.7 91 91 SE 3 6 30.00 1016 10 16 0.00 0.00
8:52 pm 20:52 Cloudy 74 23.3 71 21.7 91 91 E 3 6 30.01 1016 10 16 0.00 0.00
9:25 pm 21:25 Cloudy 74 23.3 71 21.7 91 91 E 5 7 30.03 1017 10 16 0.00 0.00
9:52 pm 21:52 Cloudy 74 23.3 70 21.1 88 88 ESE 3 6 30.04 1017 10 16 0.00 0.00
10:52 pm 22:52 Cloudy 73 22.8 70 21.1 90 90 SSE 7 11 30.05 1018 10 16 0.00 0.00
11:52 pm 23:52 Cloudy 73 22.8 70 21.1 90 90 SSE 8 13 30.04 1017 10 16 0.00 0.00

Powered by AerisWeather